Lapse_Rate
6.4 6.2 6.2 6.4 6.6 6.4 6.3 6.2 6.1 6.1 6.1 6.1 6.3 6.3 6.3 6.4 6.5 6.6 6.2 6.5 6.6 6.7 6.7 6.8 6.8 6.7 6.5 6.4 6.3 6.4 6.3 6.2 6.1 6.0 5.9 5.8 5.7 5.6 5.7 5.7 5.7 5.7 5.7 5.8 5.9
6.3 6.4 6.2 6.2 6.3 6.4 6.3 6.3 6.2 6.0 6.1 6.0 5.9 6.2 6.4 6.5 6.5 6.1 6.4 6.6 6.6 6.7 6.7 6.8 6.8 6.7 6.7 6.7 6.6 6.5 6.5 6.4 6.3 6.0 5.9 5.9 5.8 5.7 5.8 5.7 5.8 5.8 5.8 5.8 6.0
6.4 6.4 6.3 6.1 6.2 6.3 6.3 6.3 6.3 6.3 6.2 6.1 6.1 6.1 6.1 6.2 6.1 6.3 6.4 6.4 6.4 6.5 6.6 6.6 6.5 6.6 6.5 6.4 6.4 6.4 6.3 6.1 5.8 5.9 5.9 5.8 5.8 5.7 5.7 5.8 5.6 5.7 5.7 5.8 5.9
6.5 6.4 6.3 6.2 6.2 6.3 6.4 6.4 6.4 6.3 6.2 6.3 6.2 6.3 6.2 6.1 6.1 6.3 6.4 6.3 6.2 6.3 6.3 6.2 6.2 6.4 6.4 6.3 6.3 6.4 6.1 6.0 6.2 6.1 5.9 6.0 5.9 5.9 5.9 5.8 5.7 5.7 5.6 5.5 5.5
6.4 6.4 6.4 6.4 6.2 6.3 6.3 6.3 6.4 6.4 6.3 6.3 6.2 6.3 6.3 6.0 6.2 6.1 6.1 6.2 6.2 6.2 6.3 6.2 6.2 6.2 6.3 6.3 6.3 6.2 6.1 6.0 5.9 5.8 5.8 5.8 5.9 5.9 5.9 5.9 6.0 5.7 5.5 5.4 5.1
6.3 6.3 6.4 6.4 6.3 6.4 6.4 6.4 6.3 6.3 6.4 6.4 6.4 6.3 6.2 6.1 6.2 6.1 6.1 6.1 6.2 6.3 6.2 6.1 6.1 6.1 6.2 6.2 6.2 6.0 6.1 6.1 6.1 6.0 5.9 6.0 5.8 5.9 5.9 5.9 5.8 5.5 5.4 5.4 5.4
6.5 6.3 6.3 6.3 6.2 6.3 6.3 6.3 6.4 6.4 6.3 6.4 6.4 6.5 6.1 6.2 6.1 6.1 6.1 6.2 6.1 6.1 6.0 6.0 6.0 6.0 5.9 5.9 5.9 5.9 6.0 6.0 6.0 6.0 6.0 6.2 6.1 6.1 6.0 5.9 5.7 5.6 5.4 5.4 5.5
6.6 6.5 6.4 6.1 6.1 6.1 6.2 6.2 6.2 6.2 6.2 6.2 6.3 6.3 6.3 6.1 6.0 6.0 6.1 6.1 6.0 6.0 6.0 6.0 6.0 6.0 5.9 5.8 5.9 5.8 5.8 5.6 5.6 5.8 6.0 6.2 6.3 6.1 6.2 6.1 5.8 5.8 5.5 5.2 5.3
6.7 6.5 6.4 6.2 6.1 6.0 6.1 6.0 6.1 6.2 6.2 6.2 6.2 6.2 6.2 6.1 6.0 6.1 6.1 6.1 6.0 6.1 6.1 6.1 6.0 5.8 5.8 5.8 5.8 5.6 5.4 5.3 5.5 6.0 6.1 6.1 6.1 5.8 6.4 6.3 6.0 5.7 5.5 5.4 5.0
6.7 6.6 6.4 6.3 6.2 6.0 6.0 6.1 6.0 6.0 6.1 6.1 6.2 6.1 6.1 6.1 6.1 6.2 6.2 6.2 6.1 6.1 6.1 5.9 5.8 5.6 5.7 5.7 5.2 5.0 5.2 5.3 5.5 5.9 5.9 6.2 6.5 6.3 6.3 6.4 6.2 6.0 5.7 5.5 5.4
6.9 6.7 6.5 6.4 6.2 6.1 6.1 6.0 6.0 6.0 5.9 6.1 6.1 6.1 6.0 6.0 6.1 6.2 6.2 6.2 6.3 6.1 5.9 5.8 5.6 5.7 5.5 5.3 5.2 5.0 5.1 5.1 5.4 5.9 6.4 6.4 6.7 7.0 6.9 6.6 6.6 6.3 6.2 5.9 5.7
7.0 6.8 6.6 6.5 6.3 6.2 6.2 6.1 6.2 6.0 5.9 6.1 6.1 6.1 6.0 5.9 6.0 6.2 6.2 6.2 6.1 6.1 5.9 5.8 5.7 5.2 5.3 5.3 5.2 5.1 5.2 5.3 5.2 5.2 5.7 6.8 6.9 6.9 6.6 6.6 6.6 6.4 6.1 5.9 5.7
7.0 7.1 6.7 6.5 6.4 6.3 6.3 6.2 6.1 6.1 6.2 6.1 6.0 6.1 6.2 6.1 6.1 6.2 6.1 6.1 6.1 6.1 5.8 5.7 5.4 5.3 5.3 5.2 5.2 5.1 4.9 5.0 4.9 5.4 5.7 5.3 6.7 6.8 6.5 6.5 6.3 6.0 6.0 5.9 5.8
6.9 7.0 6.9 6.6 6.5 6.4 6.3 6.2 6.0 6.0 6.2 6.1 6.3 6.1 6.2 6.1 6.1 6.3 6.2 6.1 6.1 5.9 5.8 5.5 5.4 5.3 5.2 5.1 5.2 5.2 4.9 5.0 5.0 5.0 5.1 4.9 5.0 6.3 6.4 6.0 5.6 5.6 5.7 5.6 5.5
6.9 6.8 6.9 6.6 6.6 6.6 6.4 6.2 6.1 6.1 5.5 5.9 6.0 5.9 6.1 6.0 6.0 5.9 6.1 6.0 6.0 5.8 5.7 5.5 5.4 5.3 5.0 4.7 4.7 4.5 4.9 5.1 4.9 4.9 5.4 4.8 4.8 6.1 6.0 5.4 5.2 5.3 5.3 5.2 5.1
6.9 6.7 6.9 6.8 6.6 6.5 6.4 6.2 6.1 6.1 5.8 5.8 5.8 5.8 5.9 5.9 6.0 5.9 6.0 5.9 5.9 5.9 5.7 5.5 5.4 5.2 5.0 4.9 4.9 4.8 5.0 4.8 4.5 4.5 3.9 4.8 5.3 5.4 5.4 5.4 5.3 5.4 5.3 5.2 5.2
6.9 6.8 6.8 6.8 6.6 6.4 6.2 6.2 6.1 5.9 5.9 5.8 5.8 5.7 5.7 5.8 5.7 5.7 5.8 5.8 6.0 6.0 5.9 5.5 5.3 5.2 5.2 5.1 5.0 4.9 5.1 4.4 3.3 3.4 4.1 4.8 4.3 5.8 5.6 5.5 5.4 5.5 5.4 5.4 5.4
7.0 7.0 6.7 7.0 6.7 6.5 6.3 6.0 6.0 6.0 5.9 5.8 5.7 5.7 5.7 5.8 5.6 5.6 5.6 5.6 5.5 5.5 5.5 5.5 5.4 5.3 5.2 5.1 4.6 4.6 4.4 4.5 3.3 2.8 3.0 4.4 4.1 5.7 5.6 5.6 5.7 5.5 5.5 5.8 5.7
6.8 7.0 6.9 6.9 6.9 6.7 6.5 6.2 6.3 6.0 5.9 5.7 5.7 5.6 5.6 5.6 5.5 5.4 5.3 5.1 5.1 5.0 5.1 5.0 5.2 5.2 5.1 5.1 5.0 4.5 4.3 4.1 3.8 3.0 2.0 3.8 4.7 5.4 5.4 5.4 5.5 5.3 5.4 5.6 5.6
7.0 6.9 6.8 6.8 6.9 6.7 6.6 6.5 6.1 6.0 5.8 5.6 5.5 5.4 5.4 5.4 5.3 5.3 5.2 5.0 4.8 4.7 4.7 4.6 4.7 5.0 5.0 5.1 5.1 4.7 4.5 4.3 4.1 3.1 3.2 3.4 4.4 5.9 5.2 5.1 5.0 5.3 5.2 5.3 5.2
6.9 6.7 6.8 6.8 6.8 6.7 6.6 6.5 6.2 6.0 5.7 5.5 5.4 5.3 5.3 5.2 5.1 5.1 5.0 4.7 4.5 4.4 4.3 4.1 4.3 4.9 4.8 4.9 4.9 4.6 4.4 4.3 4.1 4.2 3.6 2.8 4.2 5.3 5.1 5.2 5.3 5.5 5.4 5.3 5.3
6.9 6.6 6.7 6.7 6.7 6.6 6.5 6.3 6.1 5.9 5.7 5.5 5.3 5.1 5.1 4.9 5.0 4.9 4.8 4.5 4.3 4.1 4.0 4.0 4.0 4.1 4.6 4.8 4.9 4.9 4.7 4.6 4.3 4.1 4.2 3.5 4.1 4.5 4.9 4.7 5.0 5.0 5.2 5.3 5.3
6.7 6.6 6.6 6.6 6.5 6.4 6.3 6.1 5.8 5.6 5.4 5.2 5.2 5.0 4.8 4.7 4.7 4.6 4.5 4.4 4.2 3.9 3.7 3.5 3.4 3.5 4.2 4.3 4.2 4.5 4.3 4.3 4.1 3.8 4.0 4.1 5.0 5.2 5.3 5.1 5.0 5.1 5.3 5.3 5.3
6.6 6.4 6.5 6.5 6.4 6.2 6.1 6.0 5.7 5.5 5.2 5.1 5.0 4.9 4.7 4.6 4.5 4.6 4.3 4.1 4.1 3.8 3.5 3.3 3.5 3.6 4.0 4.3 3.8 3.7 4.4 4.1 3.8 3.6 3.6 4.5 4.6 5.7 5.2 5.1 4.9 5.2 5.2 5.1 5.1
6.3 6.4 6.4 6.3 6.0 6.0 5.9 5.8 5.6 5.3 5.2 4.9 4.8 4.7 4.5 4.3 4.1 4.3 4.2 3.9 3.8 3.8 3.6 3.4 3.3 3.4 3.5 3.6 3.5 3.6 5.1 5.0 4.6 5.0 3.4 5.0 4.9 5.4 5.5 5.4 5.2 4.9 4.9 4.8 4.9
6.2 6.2 6.2 6.2 6.0 5.9 5.7 5.6 5.4 5.2 5.0 4.9 4.6 4.5 4.5 4.3 4.1 3.8 3.9 4.0 3.9 3.7 3.6 3.4 3.6 3.5 3.2 3.6 3.7 3.7 5.2 5.1 5.2 5.3 4.5 4.8 5.1 5.4 5.5 5.4 5.1 4.8 4.6 4.6 5.0
6.0 5.9 5.8 6.0 5.9 5.7 5.7 5.4 5.2 5.1 4.8 4.7 4.5 4.4 4.4 4.4 4.2 4.1 4.0 4.1 4.1 3.8 3.6 3.4 3.8 3.4 2.9 3.3 3.0 3.8 5.4 5.2 4.7 4.7 4.8 4.9 5.1 5.2 5.0 5.2 5.2 4.9 4.8 4.7 4.8
Wind_Speed
13 12 10 10 8 6 6 6 6 6 7 9 10 10 10 11 6 5 9 7 10 19 14 4 4 4 4 4 4 3 4 2 5 5 3 1 1 1 1 1 1 2 0 3 8
14 12 11 9 9 6 5 6 6 6 7 8 9 9 10 8 2 8 7 19 16 14 4 4 3 5 4 4 4 4 3 7 4 2 2 1 1 2 2 2 2 1 2 4 5
14 13 12 10 8 8 6 6 7 7 7 8 8 11 10 2 3 4 19 24 19 11 1 2 2 3 5 4 5 2 3 3 2 1 1 1 2 2 2 3 4 5 6 7 3
15 13 13 11 9 7 7 6 6 7 8 9 10 10 7 1 3 5 22 21 15 6 2 4 5 4 4 4 4 5 4 2 3 2 2 1 1 3 3 4 3 6 4 4 5
18 15 13 13 10 7 5 6 6 6 8 10 11 7 2 7 3 8 20 16 6 4 6 4 6 3 4 3 2 5 2 2 1 3 1 0 2 3 4 6 3 2 5 5 5
20 17 15 13 11 8 5 4 4 6 8 9 10 3 6 7 4 13 16 6 6 5 6 7 3 2 6 4 4 2 3 2 3 3 2 1 2 2 0 5 0 3 4 4 5
21 18 16 13 11 10 6 3 3 5 7 8 9 3 9 2 4 12 11 3 4 3 4 3 1 4 2 3 3 2 3 2 6 5 2 3 2 1 5 4 1 3 4 5 7
22 19 18 14 12 10 8 3 2 3 6 6 4 3 4 1 4 5 8 2 6 4 3 4 5 7 5 1 5 5 4 4 4 8 3 2 5 2 7 7 4 3 3 7 6
24 21 19 16 14 8 6 5 6 2 5 4 4 4 2 6 6 5 5 4 5 2 5 3 6 4 6 3 4 7 2 4 7 3 4 4 5 2 9 8 6 1 4 8 10
25 22 19 17 17 9 3 4 8 2 6 3 3 4 7 6 5 5 4 3 5 3 4 9 6 5 5 6 2 4 3 4 4 5 6 5 6 8 9 7 7 5 6 8 10
24 23 20 18 16 12 4 3 5 7 11 5 1 4 3 8 4 6 4 3 4 8 6 6 9 5 3 2 2 2 2 3 4 1 4 3 5 6 9 8 7 5 7 9 10
26 22 19 14 12 7 6 5 3 2 7 4 2 3 1 2 6 14 6 5 7 5 5 6 4 2 1 2 1 2 1 3 5 3 3 6 6 2 8 5 4 7 7 8 8
28 23 20 12 1 9 5 3 4 2 6 3 2 2 3 4 3 9 7 3 6 6 7 6 1 3 1 4 6 3 1 3 4 6 1 7 2 4 4 5 7 8 7 7 7
30 24 20 6 6 1 3 2 2 2 5 9 6 5 4 3 4 3 3 2 6 3 3 5 3 1 2 3 1 2 2 1 4 4 3 5 4 2 2 3 4 5 5 6 5
28 25 13 14 5 3 0 2 2 2 3 5 7 3 5 7 5 7 2 5 4 2 2 1 4 4 4 2 1 5 4 1 0 2 2 3 1 2 2 2 3 1 3 3 4
26 24 8 6 4 2 2 1 2 6 3 3 3 6 5 7 7 6 7 7 1 4 5 1 1 2 2 1 2 5 3 3 3 2 2 2 3 3 1 3 2 2 2 2 3
23 14 7 1 1 2 1 3 5 5 2 2 2 5 2 6 6 8 5 8 5 4 7 6 2 3 3 2 2 7 5 4 5 4 3 1 1 6 2 2 4 8 5 2 4
20 7 6 3 1 1 2 5 3 1 2 1 1 0 3 5 4 7 3 4 6 5 3 3 5 4 6 3 1 4 2 4 3 3 4 3 5 3 2 3 3 6 5 6 6
8 2 2 5 1 1 5 5 3 4 3 3 1 4 3 3 2 4 3 2 1 4 3 3 4 1 3 2 1 1 3 1 0 2 1 3 4 1 1 2 3 4 5 3 3
2 2 2 5 1 3 5 4 3 1 2 1 2 1 0 4 2 4 2 1 2 2 0 1 4 1 1 1 3 2 5 2 3 4 6 3 5 3 2 4 3 3 3 3 4
3 2 1 2 2 5 4 4 3 1 1 1 3 3 1 1 1 1 1 1 1 2 2 2 2 3 1 1 2 2 1 4 3 3 3 5 5 1 2 5 5 3 2 3 5
2 2 1 0 4 2 2 4 3 3 1 1 3 2 2 2 1 1 1 0 2 3 2 1 3 4 5 2 1 1 3 3 3 4 3 2 7 1 3 4 4 2 2 4 4
2 2 2 1 3 1 1 2 1 3 3 2 2 2 1 2 2 1 1 1 3 4 5 4 0 4 4 3 2 2 3 3 2 2 6 3 5 2 3 2 2 1 3 6 6
2 2 4 4 1 5 4 3 2 3 2 2 3 2 2 1 0 1 2 2 2 1 3 3 3 5 5 2 1 5 4 4 4 3 3 12 16 9 4 2 3 3 4 6 5
3 1 2 1 3 3 2 3 4 3 1 1 1 3 5 3 1 3 3 2 2 2 2 4 4 5 9 8 6 10 16 7 12 11 6 6 6 7 5 3 4 4 5 6 7
3 3 2 1 1 2 2 5 6 3 5 3 4 5 5 5 7 5 5 4 5 2 4 2 2 1 4 10 3 7 11 7 12 12 9 16 17 1 1 2 4 6 5 6 10
0 2 3 0 2 3 3 4 6 5 4 2 6 5 4 8 3 2 2 2 2 6 7 5 2 0 3 2 5 9 8 7 4 4 5 5 4 1 3 6 5 8 6 6 10
Wind_Direction
19 17 18 18 30 26 25 31 38 27 13 357 356 357 357 353 30 28 44 332 329 327 331 298 53 17 39 69 52 125 68 122 184 166 174 309 132 99 336 336 321 328 190 324 128
18 17 18 23 23 15 28 20 25 26 16 4 356 348 343 339 73 52 354 348 339 335 350 39 29 24 44 39 25 69 92 184 183 163 127 86 72 342 360 348 274 332 52 105 137
21 14 15 17 22 11 9 24 13 14 11 359 349 337 332 349 58 333 346 344 343 350 205 84 87 65 59 35 8 39 106 154 52 80 126 49 10 340 358 280 228 216 181 163 146
19 19 11 10 10 19 3 11 12 1 3 353 340 334 330 8 66 295 342 341 348 25 43 29 33 50 64 51 360 88 69 111 173 118 96 132 255 311 194 237 333 266 158 153 160
15 14 16 6 4 3 18 2 4 356 353 349 343 341 49 44 12 318 336 349 14 36 56 37 51 85 87 76 58 69 111 67 83 63 98 182 257 239 269 294 324 88 147 144 151
13 10 11 12 3 354 9 12 6 343 347 348 349 0 69 66 287 335 345 351 25 30 24 36 79 92 88 63 66 86 87 87 44 12 49 311 267 349 30 338 14 119 105 120 130
10 10 4 13 3 354 346 355 355 348 346 349 360 61 66 45 336 342 2 352 3 19 59 34 58 81 95 87 328 98 102 70 20 344 358 331 60 133 327 328 121 57 70 102 115
8 7 3 3 3 359 335 316 334 344 346 342 24 68 86 267 326 12 347 356 9 32 85 19 72 95 56 136 27 46 49 31 356 356 333 33 270 121 5 15 3 71 91 99 104
4 3 359 356 353 13 343 327 347 307 5 7 52 81 43 335 19 325 35 353 310 49 40 77 66 75 26 54 33 14 49 7 322 47 320 28 282 76 13 353 319 323 90 108 103
0 358 357 353 1 5 17 335 349 64 5 32 72 50 8 311 303 337 333 13 42 332 23 36 50 63 30 33 57 339 359 320 271 337 357 300 276 333 352 7 354 43 104 101 90
357 355 354 354 6 17 51 23 24 1 32 78 161 136 306 298 286 352 359 0 30 55 40 12 60 48 14 52 153 147 210 252 265 314 324 273 305 351 343 16 20 77 100 89 82
356 352 354 355 23 56 68 75 93 168 77 10 32 360 287 334 7 346 11 63 47 58 332 36 62 320 201 54 109 162 277 297 279 15 351 320 318 25 17 6 28 94 88 93 95
351 350 355 352 348 48 78 88 320 332 89 359 9 6 322 24 52 333 24 46 66 54 24 94 290 304 127 41 33 13 69 306 274 326 201 326 359 11 37 37 50 58 90 87 93
346 348 356 6 45 246 54 321 358 326 80 326 346 0 351 344 51 316 17 92 35 94 82 82 338 33 76 73 59 359 189 319 310 10 319 14 295 358 44 33 44 44 73 90 89
349 342 359 45 139 54 152 346 347 47 44 322 320 301 349 77 306 358 6 31 81 68 97 289 9 24 52 359 4 255 23 281 125 92 12 15 66 245 50 272 213 162 119 101 80
346 338 356 24 55 357 331 55 52 46 256 18 337 346 21 14 3 311 20 34 107 101 30 68 327 45 321 293 258 304 103 64 58 77 25 322 72 292 241 242 210 181 173 114 91
345 343 19 48 104 336 359 45 43 120 353 347 343 16 81 350 2 24 39 20 41 48 21 348 20 340 33 331 324 12 33 353 1 7 236 127 59 264 283 288 240 181 173 109 30
344 7 18 46 66 139 61 55 98 277 243 188 328 269 85 5 23 1 57 36 28 41 77 48 326 22 343 63 205 22 60 130 295 292 290 341 231 243 283 337 61 120 129 66 50
337 15 14 340 6 44 80 59 207 200 145 156 26 74 4 11 349 57 52 116 357 18 89 28 281 87 60 346 50 15 52 212 166 56 37 251 289 312 96 78 100 118 92 52 60
55 41 305 328 18 59 75 158 172 144 117 87 112 358 108 333 26 36 3 241 142 63 326 168 312 95 290 131 38 60 154 42 27 334 305 284 281 251 240 241 192 140 146 81 31
57 28 301 77 71 45 113 172 179 157 127 77 151 129 121 37 60 2 348 203 203 88 62 109 97 279 242 111 139 43 43 56 120 155 229 302 252 238 288 293 188 161 96 24 6
69 345 322 73 47 35 101 150 152 148 115 107 104 96 142 154 125 239 249 258 129 140 82 19 146 274 243 110 94 222 196 146 133 242 235 264 278 103 108 71 102 116 33 5 337
65 266 329 100 116 57 229 75 67 124 160 141 112 75 59 115 10 177 246 333 155 155 165 180 21 322 338 25 37 198 201 171 93 82 210 222 266 159 112 68 67 132 343 336 335
73 359 338 49 62 128 142 138 119 20 105 104 125 106 124 93 117 225 244 195 191 218 127 156 169 212 235 257 138 275 208 199 168 201 222 236 273 260 298 297 292 299 328 323 328
32 177 169 335 19 86 88 143 134 175 43 188 27 220 165 166 237 225 209 203 159 170 109 172 234 205 256 262 227 257 265 229 219 228 220 269 253 289 272 260 282 309 313 318 328
137 141 28 121 29 105 9 210 174 163 151 230 212 187 186 194 201 233 174 188 232 167 176 190 261 84 259 271 280 266 264 214 234 250 256 267 279 112 255 308 307 306 313 328 331
257 358 114 359 107 123 215 182 209 162 200 197 187 144 212 241 193 140 155 105 199 173 191 171 188 178 258 337 304 277 257 181 189 203 187 226 234 59 295 311 313 307 331 333 321